www.pogodaiklimat.ru

Погода и климат >> Архив погоды >> Индия >> Honavar


ПОГОДА в Honavar

  • Прогноз погоды в Honavar
  • Монитор погоды в Honavar
  • Климат города

АРХИВ ПОГОДЫ в Honavar

Время (UTC), дата Ветер
(напр.,м/с)
 
Видим.   Явления Облачность Т
(С)
Тd
(С)
f
(%)
Тe
(С)
Тes
(С)
Комфортность P
(гПа)
Po
(гПа)
Тmin
(С)
Tmax
(С)
R
(мм)
R24
(мм)
S
(см)
03 14.05 В 1 4000 м 8/5 300 м
[Cu Sc Ac trans]
+24.9 +23.6 92 +34 +36 очень
душно
1011.0 1008.1 +22.4 +33.1 12
06 14.05 В 1 10 км 8/5 300 м
[Cu Sc Ac trans]
+29.8 +25.0 75 +43 +50 опасность
перегрева
1010.4 1007.5
09 14.05 З 1 10 км 8/5 300 м
[Cu Sc Ac trans]
+31.0 +25.7 73 +46 +52 опасность
перегрева
1008.4 1005.5
12 14.05 З 1 4000 м 8/5 300 м
[Cu Sc Ac trans]
+29.8 +26.2 81 +45 +46 опасность
перегрева
1007.6 1004.7 +31.4
21 14.05 В 1 4000 м {гроза, дождь} 10/8 200 м
[St As op]
+22.8 +21.6 93 +30 +30 очень
душно
1009.5 1006.5 13
00 15.05 В 1 4000 м {гроза, дождь} 10/8 200 м
[St As op]
+23.0 +22.1 95 +31 +31 очень
душно
1008.8 1005.8 13
03 15.05 В 1 4000 м 8/5 300 м
[Cu Sc Ac trans]
+25.4 +21.8 80 +33 +35 очень
душно
1009.6 1006.7 +22.2 +31.4 13
06 15.05 В 1 10 км 8/5 300 м
[Cu Sc Ac trans]
+30.0 +22.7 65 +40 +47 очень
душно
1009.1 1006.2
09 15.05 З 1 10 км 5/3 600 м
[Sc Ac trans]
+32.8 +23.0 56 +43 +54 опасность
перегрева
1006.3 1003.4
12 15.05 З 1 10 км 5/3 600 м
[Sc Ac trans]
+31.2 +24.7 68 +44 +46 опасность
перегрева
1005.4 1002.5 +33.1
15 15.05 З 1 4000 м 3/3 600 м
[Sc]
+29.4 +26.0 82 +44 +44 опасность
перегрева
1007.4 1004.5
18 15.05 З 1 4000 м 3/3 600 м
[Sc]
+27.0 +24.7 87 +38 +38 очень
душно
1007.9 1005.0
21 15.05 В 1 4000 м 3/3 600 м
[Sc]
+26.0 +25.1 95 +37 +37 очень
душно
1006.3 1003.4
00 16.05 В 1 4000 м ясно +25.4 +24.8 96 +36 +36 очень
душно
1006.0 1003.1
03 16.05 В 1 4000 м ясно +29.0 +25.9 83 +43 +51 опасность
перегрева
1008.5 1005.6 +25.2 +33.1
06 16.05 З 1 10 км 4/4 600 м
[Sc]
+32.2 +25.8 69 +47 +62 опасность
перегрева
1008.6 1005.7
12 16.05 З 1 10 км 6/4 300 м
[Cb cap Cs]
+31.2 +26.2 75 +47 +49 опасность
перегрева
1005.7 1002.8 +32.9
15 16.05 СВ 1 4000 м {гроза} 5/5 300 м
[Sc]
+27.4 +20.8 67 +34 +34 очень
душно
1008.9 1005.0
18 16.05 В 1 4000 м {гроза} ясно +26.0 +22.1 79 +34 +34 очень
душно
1007.6 1004.7
21 16.05 В 1 4000 м ясно +25.4 +23.3 88 +34 +34 очень
душно
1005.6 1002.7
00 17.05 В 1 4000 м ясно +25.4 +23.3 88 +34 +34 очень
душно
1006.0 1003.1
03 17.05 В 1 10 км 4/0 2000 м
[Ac trans Cs]
+28.2 +24.5 80 +40 +46 очень
душно
1008.2 1005.3 +24.5 +32.9
06 17.05 З 1 10 км 3/3 300 м
[Cu Sc]
+31.6 +24.5 66 +44 +61 опасность
перегрева
1008.4 1005.5
09 17.05 З 1 10 км 3/3 600 м
[Sc]
+32.0 +24.9 66 +45 +59 опасность
перегрева
1006.6 1003.7
12 17.05 З 1 10 км 3/3 600 м
[Sc]
+31.6 +25.7 71 +47 +49 опасность
перегрева
1005.2 1002.3 +32.6
15 17.05 СЗ 1 4000 м зарница 5/5 300 м
[Cb cap]
+30.4 +25.6 76 +45 +45 опасность
перегрева
1008.5 1005.6
18 17.05 В 1 4000 м зарница 5/5 300 м
[Cb cap]
+28.4 +25.6 85 +42 +42 опасность
перегрева
1008.6 1005.7
21 17.05 В 2 4000 м зарница 6/5 300 м
[Cb cap Ac trans]
+27.4 +22.4 74 +36 +36 очень
душно
1008.4 1005.5
00 18.05 Ю 1 4000 м слабый дождь 10/6 300 м
[St As op]
+25.0 +22.0 83 +32 +32 очень
душно
1007.2 1004.3 0.0
03 18.05 В 1 4000 м 5/3 600 м
[Sc Ac trans]
+27.0 +22.3 75 +35 +39 очень
душно
1009.0 1006.1 +24.4 +32.6 0.0
06 18.05 В 2 10 км 4/0
[Cs]
+30.8 +22.3 61 +40 +60 опасность
солнечного
удара
1008.8 1005.9
09 18.05 З 1 10 км 6/3 300 м
[Sc Ac trans Cs]
+32.6 +20.0 47 +39 +50 очень
душно
1006.9 1004.0
12 18.05 З 1 10 км 6/3 300 м
[Sc Ac trans]
+31.0 +21.2 56 +39 +40 очень
душно
1006.4 1003.5 +33.2
15 18.05 З 1 4000 м 1/0 2000 м
[Ac trans]
+29.6 +24.5 74 +42 +42 опасность
перегрева
1007.6 1004.7
18 18.05 З 1 4000 м 1/1 300 м
[Sc]
+27.2 +24.0 83 +38 +38 очень
душно
1008.6 1005.6
21 18.05 З 1 4000 м ясно +25.6 +24.1 91 +35 +35 очень
душно
1006.7 1003.8
00 19.05 В 1 4000 м 3/3 300 м
[Sc]
+25.2 +23.7 91 +34 +34 очень
душно
1007.2 1004.3
03 19.05 В 1 10 км 6/6 300 м
[Cu Sc]
+27.4 +24.5 84 +39 +42 очень
душно
1009.1 1006.2 +25.0 +33.2
06 19.05 З 1 10 км 4/4 300 м
[Cu Sc]
+31.8 +23.8 63 +43 +58 опасность
перегрева
1008.7 1005.8
09 19.05 З 1 10 км 3/3 600 м
[Sc]
+32.4 +24.7 64 +45 +59 опасность
перегрева
1006.6 1003.7
12 19.05 З 1 10 км 6/3 600 м
[Sc Ac trans]
+31.4 +25.2 70 +45 +47 опасность
перегрева
1005.5 1002.6 +32.8
15 19.05 З 1 4000 м зарница 3/3 600 м
[Cb calv]
+29.4 +25.1 78 +43 +43 опасность
перегрева
1007.0 1004.1
18 19.05 В 1 4000 м 3/3 300 м
[Sc]
+28.0 +26.0 89 +42 +42 опасность
перегрева
1007.3 1004.4
21 19.05 В 1 4000 м зарница 5/4 600 м
[Cb cap Ac trans]
+27.4 +26.0 92 +41 +41 опасность
перегрева
1006.7 1003.8
00 20.05 В 3 4000 м гроза, ливневой дождь 10/8 200 м
[Cb cap As op]
+24.4 +23.8 96 +33 +33 очень
душно
1007.1 1004.2 8
03 20.05 В 2 4000 м гроза, ливневой дождь 10/6 300 м
[Cb cap As op]
+23.8 +22.6 93 +31 +32 очень
душно
1010.7 1007.7 +22.4 +32.8 27
06 20.05 штиль 0 10 км {гроза, дождь} 10/4 300 м
[Sc Ac As]
+25.4 +23.7 90 +35 +40 очень
душно
1008.9 1006.0 2
09 20.05 З 1 10 км 8/6 300 м
[Cu Sc Ac trans]
+30.0 +23.3 67 +40 +46 очень
душно
1006.7 1003.8 2
12 20.05 З 1 10 км 8/3 300 м
[Sc Ac trans Cs]
+29.0 +23.8 74 +40 +41 очень
душно
1006.4 1003.5 +30.7 2
15 20.05 З 1 4000 м 4/4 300 м
[Sc]
+27.4 +24.5 84 +39 +39 очень
душно
1007.7 1004.8 2
18 20.05 З 1 4000 м 4/4 300 м
[Sc]
+26.6 +24.9 90 +38 +38 очень
душно
1008.3 1005.4 2
21 20.05 З 1 4000 м ясно +26.0 +24.9 94 +37 +37 очень
душно
1007.3 1004.4 2
00 21.05 В 1 4000 м 3/3 200 м
[Cu Sc]
+26.0 +25.1 95 +37 +37 очень
душно
1007.1 1004.2 2

 

Местоположение метеостанции Honavar (Karnataka, Индия): широта 14.28 долгота 74.45 высота над уровнем моря 9 м.

В архиве по умолчанию представлена погода в Honavar за последнюю неделю. Архивные данные за месяц целиком и за предыдущие месяцы, начиная с января 2011 года, Вы можете получить, выбрав интересующий диапазон дат из раскрывающегося списка и нажав кнопку "Ввод!".


*Определитесь, кто Вы:
робот инопланетянин человек

Внимание! Время в таблицах - всемирное. Для получения местного времени необходимо прибавить поправку, которая в Honavar равна 5.5 ч.

Смотрите также архив погоды в соседних городах и на ближайших метеорологических станциях:

Погода в Shirali (Karnataka, Индия) (25 км)
Погода в Karwar (Karnataka, Индия) (65 км)
Погода в Agumbe Emo (Karnataka, Индия) (110 км)
Погода в Haveri (Karnataka, Индия) (116 км)
Погода в Shimoga (Karnataka, Индия) (133 км)
Погода в Dharwad (Karnataka, Индия) (145 км)
Погода в Mormugao (Goa, Индия) (146 км)
Погода в Panjim (Goa, Индия) (150 км)
Погода в Mangalore (Karnataka, Индия) (154 км)
Погода в Mangalore Airport (Karnataka, Индия) (158 км)

Пояснения к столбцам:

Ветер - указаны скорость ветра в м/с - средняя за 10 мин, порывы в срок и между сроками (в фигурных скобках) и направление, откуда дует ветер: С - северный, СВ - северо-восточный, В - восточный, ЮВ - юго-восточный, Ю - южный, ЮЗ - юго-западный, З - западный, СЗ - северо-западный.
Видимость - горизонтальная дальность видимости в метрах или километрах. При видимости от 1 до 10 км при отсутствии осадков обычно наблюдается дымка, при ухудшении видимости до 1 км и менее - туман. В сухую погоду видимость может ухудшаться дымом, пылью или мглою.
Явления - указаны атмосферные явления, наблюдавшиеся в срок или в последний час перед сроком; фигурными скобками обозначены явления, наблюдавшиеся между сроками (за 1-3 часа до срока); квадратными скобками обозначены град или гололедные отложения с указанием их диаметра в мм.
Облачность - указаны через наклонную черту общая и нижняя облачность в баллах и высота нижней границы облаков в метрах; квадратными скобками обозначены формы облаков: Ci - перистые, Cs - перисто-слоистые, Cc - перисто-кучевые, Ac - высококучевые, As - высокослоистые, Sc - слоисто-кучевые, Ns - слоисто-дождевые, Cu - кучевые, Cb - кучево-дождевые. Подробнее классификацию облаков см. в Атласе облаков (PDF).
T - Температура воздуха - температура, измеренная на высоте 2 м над землей.
Td - Температура точки росы - температура, при понижении до которой содержащийся в воздухе водяной пар достигнет насыщения.
f - Относительная влажность воздуха - влажноcть воздуха, измеренная на высоте 2 м над землей.
Te - Эффективная температура - температура, которую ощущает одетый по сезону человек в тени. Характеристика душности погоды. При расчете учитывается влияние влажности воздуха и скорости ветра на теплоощущения человека.
Tes - Эффективная температура на солнце - температура, которую ощущает человек, с поправкой на солнечный нагрев. Характеристика знойности погоды. Зависит от высоты солнца над горизонтом, облачности и скорости ветра. Ночью, в пасмурную погоду, а также при ветре 12 м/с и более поправка равна нулю.
P - Атмосферное давление - приведенное к уровню моря атмосферное давление.
Po - Атмосферное давление - измеренное на уровне метеостанции атмосферное давление.
Tmin - Минимальная температура - минимум температуры воздуха на высоте 2 м над землей.
Tmax - Максимальная температура - максимум температуры воздуха на высоте 2 м над землей.
R - Количество осадков - Количество выпавших осадков за период времени, мм. При наведении курсора мыши на число - период времени, за который выпало указанное количество осадков.
R24 - Количество осадков - Количество выпавших осадков за 24 часа, мм.
S - Снежный покров - Высота снежного покрова, см. При наведении курсора мыши на число - состояние снежного покрова и степень покрытия местности в баллах.